This is the latest recevied weather packets stored in our database for station/object IU5JAE-13. If no packets are shown the sender has not sent any weather packets the latest 10 day(s).
| Time | Temp. | Humidity | Pressure | Rain* | Wind** | Luminosity | Snow |
|---|---|---|---|---|---|---|---|
| 1778078731 | 15.56° C | 81% | 1010.3 hPa | 0 mm | - | 139 W/m² | - |
| 1778078128 | 16.11° C | 85% | 1010.2 hPa | 0 mm | - | 401 W/m² | - |
| 1778077526 | 16.11° C | 85% | 1010.2 hPa | 0 mm | - | 267 W/m² | - |
| 1778076924 | 15.56° C | 87% | 1010.2 hPa | 0 mm | - | 430 W/m² | - |
| 1778076321 | 15° C | 88% | 1010.3 hPa | 0 mm | - | 308 W/m² | - |
| 1778075719 | 15° C | 91% | 1010.2 hPa | 0 mm | - | 447 W/m² | - |
| 1778075116 | 14.44° C | 92% | 1010.4 hPa | 0 mm | - | 261 W/m² | - |
| 1778074534 | 14.44° C | 92% | 1010.4 hPa | 0 mm | - | 188 W/m² | - |
| 1778073932 | 14.44° C | 92% | 1010.4 hPa | 0 mm | - | 216 W/m² | - |
| 1778073329 | 14.44° C | 93% | 1010.3 hPa | 0 mm | - | 111 W/m² | - |
| 1778072727 | 14.44° C | 94% | 1010.3 hPa | 0 mm | - | 141 W/m² | - |
| 1778072125 | 14.44° C | 95% | 1010.2 hPa | 0 mm | - | 170 W/m² | - |
| 1778071522 | 14.44° C | 96% | 1010.3 hPa | 0 mm | - | 148 W/m² | - |
| 1778070920 | 13.89° C | 96% | 1010.1 hPa | 1.27 mm | - | 132 W/m² | - |
| 1778070317 | 13.89° C | 98% | 1010.2 hPa | 2.29 mm | - | 165 W/m² | - |
| 1778069735 | 14.44° C | 98% | 1010.3 hPa | 2.79 mm | - | 200 W/m² | - |
| 1778069132 | 13.89° C | 97% | 1010.1 hPa | 4.06 mm | - | 161 W/m² | - |
| 1778068530 | 13.89° C | 96% | 1009.9 hPa | 4.06 mm | - | 175 W/m² | - |
| 1778067928 | 12.78° C | 96% | 1010 hPa | 4.06 mm | - | 295 W/m² | - |
| 1778067325 | 13.33° C | 98% | 1010.1 hPa | 2.79 mm | - | 81 W/m² | - |
| 1778066723 | 13.89° C | 99% | 1009.9 hPa | 2.79 mm | - | 97 W/m² | - |
| 1778066121 | 13.89° C | 99% | 1009.7 hPa | 6.86 mm | - | 26 W/m² | - |
| 1778065518 | 13.89° C | 99% | 1009.8 hPa | 7.62 mm | - | 132 W/m² | - |
| 1778064916 | 13.89° C | 99% | 1009.8 hPa | 7.62 mm | - | 177 W/m² | - |
| 1778064333 | 13.89° C | 99% | 1009.9 hPa | 7.62 mm | - | 39 W/m² | - |
* Rain latest hour (hover to see other rain measurements)
** Current wind speed in m/s (hover to see current wind gust speed)